Location: Sternwarte-Kraichtal
(49.1689°N, 8.6996°E)
Time: 15:39:33
(UTC+02:00)

BlueWalker 3 - Pass Details

Date: 05 March 2024
Orbit: 485 x 495 km, 53.2° (Epoch: 25 April)

Event Time Altitude Azimuth Distance (km) Brightness Sun altitude
Rises 18:57:52 0° 294° (WNW) 2,564 7.0 -7.8°
Reaches altitude 10° 19:00:06 10° 287° (WNW) 1,677 6.0 -8.1°
Maximum altitude 19:03:42 43° 216° (SW) 690 2.9 -8.7°
Drops below altitude 10° 19:07:17 10° 143° (SE) 1,663 4.2 -9.3°
Enters shadow 19:08:31 - 139° (SE) 2,146 4.7 -9.5°
